Weather in Carvoeiro

Portugal     37°05′58″N   8°28′28″W
temp.,
°C
wind,
m/s
gust,
m/s
humid.,
%
clouds,
%
prec.,
mm/h
press.,
hPa
HPBL,
m
18 january, tue
tue1800:00+13ene566752 0.0 1029399
03:00+12ene4571100 0.0 1028321
06:00+12ene5671100 0.0 1028388
09:00+12e4572100 0.0 1029351
12:00+13ese6768100 0.0 1029551
15:00+13ese6673100 0.0 1028558
18:00+13ese557320 0.0 1028418
21:00+13ene45727 0.0 1029359
19 january, wed
wed1900:00+13ene557182 0.0 1029352
03:00+12ene45715 0.0 1029327
06:00+12ene446916 0.0 1029255
09:00+12ene446325 0.0 1030277
12:00+13ese44605 0.0 1030376
15:00+13ese446547 0.0 1028369
18:00+14ese226440 0.0 1028226
21:00
20 january, thu
thu2000:00+12nne33690 0.0 1028154
03:00+12ne33640 0.0 1027174
06:00
09:00+12ene45680 0.0 1027303
12:00+13e56630 0.0 1027457
15:00+14ese66630 0.0 1025376
18:00+14ese34620 0.0 1025364
21:00+13nne33670 0.0 1025205
21 january, fri
fri2100:00+12n33650 0.0 1024150
03:00+12ne33550 0.0 1023164
06:00+11ne33540 0.0 1022170
09:00+11ne33560 0.0 1023199
12:00+13ese22500 0.0 1023279
15:00+13s43580 0.0 1021263
18:00+13wsw22570 0.0 1022356
21:00+13ene11590 0.0 1023237
22 january, sat
sat2200:00+12ene22650 0.0 1023185
03:00+12e44660 0.0 1023303
06:00+11ene67720 0.0 1023324
09:00+13e577729 0.0 1024635
12:00+13e997736 0.1 1025627
15:00+13e78765 0.0 1024602
18:00+13e78755 0.0 1025533
21:00+13e67733 0.0 1026607